Погода в Майкопе

Россия / Республика Адыгея     44°36′31″N   40°05′54″E
темп.,
°C
ветер,
м/с
пор.,
м/с
влажн.,
%
обл.,
%
осадки,
мм/ч
давл.,
гПа
погр.,
м
3 августа, вт
вт300:00+21ююз22734 0.1 101214
03:00+20ююз22761 0.1 101236
06:00+20ю12725 0.0 101226
09:00+28з22465 0.0 1012520
12:00+33зсз22330 0.0 10121655
15:00+35з33288 0.0 10102779
18:00+29ююв354697 0.0 1011171
21:00+23ююз23680 0.0 101253
4 августа, ср
ср400:00+22зюз36690 0.0 1014169
03:00+21ю22720 0.0 101435
06:00+21ю116923 0.0 101421
09:00+28ссз22485 0.0 1015619
12:00+33сз223230 0.0 10141925
15:00+32ссв343518 0.0 1013889
18:00+28ююв484892 0.0 1013345
21:00+23в38692 0.1 1015237
5 августа, чт
чт500:00+21юв24750 0.0 101482
03:00+20юв11760 0.0 101412
06:00+19юв118010 0.0 101516
09:00+28всв2448100 0.0 1014790
12:00+33в243510 0.0 10122110
15:00+35вюв433048 0.0 10103033
18:00+32в46398 0.0 1010889
21:00+25в25600 0.0 1010118
6 августа, пт
пт600:00+22юв22700 0.0 100937
03:00+20ююз11770 0.0 100916
06:00+20ю22770 0.0 100931
09:00+29с11540 0.0 1008528
12:00+36св123283 0.0 10061700
15:00+37вюв3425100 0.0 10042513
18:00+34вюв3734100 0.0 1003583
21:00+28юв254692 0.0 1003136
7 августа, сб
сб700:00+23ю1169100 0.0 100418
03:00+22зюз1175100 0.0 100415
06:00+22юз128132 0.0 100543
09:00+29с225213 0.0 1005681
12:00+35сз2234100 0.0 10051478
15:00+19вюв51183100 4.7 1007158
18:00+27юв3855100 0.2 1006254
21:00+22ю2471100 0.2 100859